Weather History for Melbourne, FL

Change the Weather History Date:

Wednesday, January 29, 2014

  Actual Average Record
Temperature  
Mean Temperature 59 °F 61 °F  
Max Temperature 66 °F 72 °F 87 °F (2009)
Min Temperature 52 °F 50 °F 30 °F (1986)
Degree Days  
Heating Degree Days 6 6  
Month to date heating degree days 194 174  
Since 1 July heating degree days 233 353  
Cooling Degree Days 0 2  
Month to date cooling degree days 57 33  
Year to date cooling degree days 57 33  
Growing Degree Days 8 (Base 50)    
Moisture  
Dew Point 56 °F    
Average Humidity 90    
Maximum Humidity 100    
Minimum Humidity 80    
Precipitation  
Precipitation 1.84 in 0.08 in 1.84 in (2014)
Month to date precipitation 3.01 2.11  
Year to date precipitation 3.01 2.11  
Sea Level Pressure  
Sea Level Pressure 30.09 in    
Wind  
Wind Speed 12 mph (NNW)    
Max Wind Speed 21 mph    
Max Gust Speed 29 mph    
Visibility 6 miles    
Events Rain    
T = Trace of Precipitation, MM = Missing Value Source: NWS Daily Summary

Daily Weather History Graph

Daily Weather History Graph

Search for Another Location

Airport:

Trip Planner

Search our weather history database for the weather conditions in past years. The results will help you decide how hot, cold, wet, or windy it might be!

Date:

Astronomy

Jan. 29, 2014 Rise Set
Actual Time 7:11 AM EST 6:00 PM EST
Civil Twilight 6:46 AM EST 6:25 PM EST
Nautical Twilight 6:18 AM EST 6:53 PM EST
Astronomical Twilight 5:50 AM EST 7:21 PM EST
Moon 5:45 AM EST (1/29) 4:57 PM EST (1/29)
Length of Visible Light 11h 38m
Length of Day
10h 49m
Waning Crescent, 2% of the Moon is Illuminated
Jan 29
Waning Crescent
Jan 30
New
Feb 6
First Quarter
Feb 14
Full
Feb 22
Last Quarter

Hourly Weather History & Observations

Time (EST) Temp. Dew Point Humidity Pressure Visibility Wind Dir Wind Speed Gust Speed Precip Events Conditions
12:53 AM 64.9 °F 60.1 °F 84% 29.99 in 10.0 mi SSW 4.6 mph - N/A   Clear
1:53 AM 64.9 °F 60.1 °F 84% 29.99 in 10.0 mi WSW 4.6 mph - N/A   Clear
2:53 AM 64.0 °F 60.1 °F 87% 29.99 in 10.0 mi WSW 4.6 mph - N/A   Clear
3:53 AM 62.1 °F 61.0 °F 96% 29.99 in 9.0 mi Calm Calm - N/A   Clear
4:53 AM 61.0 °F 59.0 °F 93% 30.00 in 6.0 mi NNW 8.1 mph - N/A   Scattered Clouds
5:06 AM 62.6 °F 60.8 °F 94% 30.00 in 6.0 mi Calm Calm - N/A   Mostly Cloudy
5:34 AM 62.6 °F 60.8 °F 94% 30.02 in 6.0 mi NNW 4.6 mph - N/A   Overcast
5:53 AM 62.1 °F 60.1 °F 93% 30.02 in 7.0 mi North 9.2 mph - N/A   Overcast
6:07 AM 62.6 °F 60.8 °F 94% 30.04 in 6.0 mi North 10.4 mph - N/A   Overcast
6:43 AM 59.0 °F 57.2 °F 94% 30.05 in 9.0 mi North 10.4 mph - N/A   Overcast
6:53 AM 57.9 °F 55.9 °F 93% 30.06 in 8.0 mi NNW 16.1 mph - N/A   Overcast
7:53 AM 55.9 °F 53.1 °F 90% 30.10 in 8.0 mi NNW 11.5 mph - N/A   Overcast
8:53 AM 57.9 °F 54.0 °F 87% 30.12 in 10.0 mi North 15.0 mph 23.0 mph N/A   Overcast
9:53 AM 59.0 °F 54.0 °F 83% 30.13 in 10.0 mi North 16.1 mph - N/A   Overcast
10:53 AM 59.0 °F 54.0 °F 83% 30.14 in 10.0 mi North 17.3 mph - N/A   Overcast
11:53 AM 60.1 °F 55.0 °F 83% 30.12 in 10.0 mi North 12.7 mph - N/A   Overcast
12:53 PM 59.0 °F 54.0 °F 83% 30.12 in 9.0 mi NNW 15.0 mph 20.7 mph N/A   Overcast
1:53 PM 57.9 °F 53.1 °F 84% 30.09 in 10.0 mi North 16.1 mph - N/A   Overcast
2:53 PM 57.9 °F 52.0 °F 81% 30.07 in 10.0 mi North 13.8 mph 19.6 mph 0.00 in Rain Light Rain
3:53 PM 55.9 °F 53.1 °F 90% 30.10 in 4.0 mi NNW 13.8 mph - 0.02 in Rain Rain
4:53 PM 54.0 °F 52.0 °F 93% 30.11 in 4.0 mi NNW 12.7 mph 20.7 mph 0.06 in Rain Light Rain
5:53 PM 52.0 °F 50.0 °F 93% 30.14 in 2.5 mi NNW 11.5 mph - 0.05 in Rain Rain
6:53 PM 53.1 °F 51.1 °F 93% 30.14 in 2.5 mi NNW 12.7 mph - 0.10 in Rain Rain
7:00 PM 53.6 °F 51.8 °F 94% 30.13 in 5.0 mi NNW 15.0 mph - 0.02 in Rain Rain
7:53 PM 54.0 °F 54.0 °F 100% 30.13 in 3.0 mi North 11.5 mph - 0.20 in Rain Heavy Rain
8:53 PM 55.9 °F 55.0 °F 97% 30.15 in 3.0 mi NNW 10.4 mph - 0.17 in Rain Rain
9:53 PM 55.9 °F 55.0 °F 97% 30.16 in 6.0 mi North 13.8 mph - 0.10 in Rain Rain
10:15 PM 55.4 °F 55.4 °F 100% 30.18 in 1.8 mi North 13.8 mph 24.2 mph 0.21 in Rain Heavy Rain
10:49 PM 55.4 °F 53.6 °F 94% 30.16 in 2.5 mi North 13.8 mph - 0.81 in Rain Heavy Rain
10:53 PM 55.0 °F 54.0 °F 96% 30.16 in 3.0 mi North 12.7 mph 20.7 mph 0.83 in Rain Heavy Rain
11:09 PM 55.4 °F 53.6 °F 94% 30.15 in 2.5 mi North 13.8 mph - 0.11 in Rain Heavy Rain
11:24 PM 55.4 °F 53.6 °F 94% 30.15 in 3.0 mi NNW 11.5 mph - 0.19 in Rain Heavy Rain
11:39 PM 55.4 °F 55.4 °F 100% 30.15 in 7.0 mi North 13.8 mph - 0.21 in Rain Rain
11:53 PM 55.9 °F 55.0 °F 97% 30.15 in 3.0 mi North 11.5 mph - 0.26 in Rain Heavy Rain